Regional Weather Roundup
Issued by NWS Mobile, AL

Home | Current Version | Previous Version | Text Only | Print | Product List | Glossary On
Versions: 1 2 3 4 5 6 7 8 9 10 11 12 13 14 15 16 17 18 19 20 21 22 23 24 25 26 27 28
000
ASUS44 KMOB 250413
RWRMOB
REGIONAL WEATHER ROUNDUP
NATIONAL WEATHER SERVICE MOBILE AL
1100 PM CDT FRI MAR 24 2017

NOTE: "FAIR" INDICATES FEW OR NO CLOUDS BELOW 12,000 FEET WITH NO
      SIGNIFICANT WEATHER AND/OR OBSTRUCTIONS TO VISIBILITY.

  * THESE STATIONS ARE PART OF THE UNIVERSITY OF SOUTH ALABAMA
    MESONET AND ARE NOT UNDER NWS OR FAA QUALITY CONTROL.

ALZ061>064-250500-
COASTAL ALABAMA

CITY           SKY/WX    TMP DP  RH WIND       PRES   REMARKS
MOBILE REG APT CLOUDY    67  61  81 SE16      30.19F
BROOKLEY FIELD MOCLDY    68  63  84 SE13      30.22F
USA CAMPUS*    NOT AVBL
DOG RIVER*       N/A     66  63  88 SE9       31.02


CITY           SKY/WX    TMP DP  RH WIND       PRES   REMARKS
GULF SHORES    CLOUDY    66  64  91 SE12G18   30.20F

$$

ALZ051>060-250500-
INTERIOR SOUTHWEST AND SOUTH CENTRAL ALABAMA

CITY           SKY/WX    TMP DP  RH WIND       PRES   REMARKS
GREENVILLE     PTCLDY    64  53  67 CALM      30.22F
EVERGREEN      PTCLDY    61  55  81 CALM      30.22F
ATMORE*        NOT AVBL
ANDALUSIA/OPP  PTCLDY    63  53  70 CALM      30.24S
ANDALUSIA*       N/A     61  54  77 SE2       30.23S
FLORALA APT    CLOUDY    58  52  80 CALM      30.25F
FLORALA*         N/A     59  55  88 CALM      31.02F

$$

FLZ001>006-250500-
WESTERN FLORIDA PANHANDLE

CITY           SKY/WX    TMP DP  RH WIND       PRES   REMARKS
PENSACOLA      PTCLDY    68  60  75 SE8       30.21F
NAS PENSACOLA  MOCLDY    67  61  81 SE8       30.21F
MILTON         LGT RAIN  62  58  86 SE9       30.22F
WHTNG S FIELD  NOT AVBL


CITY           SKY/WX    TMP DP  RH WIND       PRES   REMARKS
JAY*             N/A     61  57  88 SE3       30.22F
DUKE FIELD     MOCLDY    62  53  72 SE5       30.23F
CRESTVIEW      MOCLDY    57  53  86 CALM      30.25F
VALPARAISO     MOCLDY    65  57  75 SE5       30.23F
DESTIN         PTCLDY    68  62  81 SE6       30.23F

$$

MSZ076-079-250500-
INTERIOR SOUTHEAST MISSISSIPPI

CITY           SKY/WX    TMP DP  RH WIND       PRES   REMARKS
LEAKESVILLE*   NOT AVBL
AGRICOLA*        N/A     66  63  88 SE3       30.16

$$

MARINE OBSERVATIONS

STATION/POSITION TIME  TEMP    WIND        PRES    WAVE
                       AIR SEA DIR/SP/G            HT/PER
                 (UTC) (F)     (DEG/KT/KT) (MB)    (FT/S)
PASCAGOULA       0348   69     120/ 16/ 22 1021.7F
PETIT BOIS ISLND 0348   68     120/ 14/ 18 1022.9S
GRAND BAY        0245   70     130/ 19     1023.0F
KATRINA CUT      0330          130/ 18     1022.0F
CEDAR POINT      0330   69     130/ 16     1022.4F
E DAUPHIN ISLAND 0300   69     120/ 18/ 20 1022.7S
MIDDLE BAY LIGHT 0330   68     120/ 20     1022.4F
USCG MOBILE BAY  0348   67 70  140/  7/ 10 1023.6F
STATE DOCKS      0342   67 65              1023.0S
MEAHER PARK      0330   66     120/  7     1023.4F
WEEKS BAY        0245   66                   N/A
FORT MORGAN      0348   69     130/ 20/ 23   N/A
12 S ORANGE BCH  0350   69 69  130/ 16/ 17 1022.5F   5/ 7
PENSACOLA BAY    0348          120/  2/  5   N/A
64 S DAUPHIN ISL 0350   71 73  120/ 17/ 23 1022.3S   7/ 8
67 S FORT MORGAN 0330   69     120/ 19     1022.7S

$$

SELECTED LOCATIONS ACROSS THE REGION

CITY           SKY/WX    TMP DP  RH WIND       PRES   REMARKS
NEW ORLEANS    CLOUDY    71  66  84 SE15      30.13R
GULFPORT       CLOUDY    70  66  87 SE21      30.16S
PASCAGOULA AP  CLOUDY    68  62  81 SE18      30.17F
PASCAGOULA*    NOT AVBL
HATTIESBURG    CLOUDY    68  62  81 SE13      30.17R
LAUREL         CLOUDY    68  59  73 S14       30.18R
MERIDIAN       PTCLDY    67  61  81 S14       30.16S
JACKSON        PTCLDY    69  61  75 SE20      30.07F
MONTGOMERY     CLOUDY    68  53  58 S5        30.23S
TROY           PTCLDY    64  56  75 S3        30.25S
ASHFORD*         N/A     61  54  77 SE2       30.23S
DOTHAN         PTCLDY    64  58  80 S3        30.28F
PANAMA CITY    CLOUDY    58  55  90 CALM      30.24S

$$





USA.gov is the U.S. government's official web portal to all federal, state and local government web resources and services.